TimeCST,TemperatureF,Dew PointF,Humidity,Sea Level PressureIn,VisibilityMPH,Wind Direction,Wind SpeedMPH,Gust SpeedMPH,PrecipitationIn,Events,Conditions,WindDirDegrees,DateUTC
12:15 AM,67.6,63.5,87,30.08,10.0,SW,4.6,-,N/A,,Unknown,220,2014-02-19 06:15:00
12:35 AM,67.1,63.0,87,30.09,10.0,SW,3.5,-,N/A,,Unknown,230,2014-02-19 06:35:00
12:55 AM,66.6,62.8,88,30.08,10.0,SSW,3.5,-,N/A,,Unknown,210,2014-02-19 06:55:00
1:15 AM,66.2,62.6,88,30.08,10.0,SSW,3.5,-,N/A,,Unknown,210,2014-02-19 07:15:00
1:35 AM,65.7,62.2,89,30.07,7.0,South,4.6,-,N/A,,Unknown,180,2014-02-19 07:35:00
1:55 AM,65.7,62.6,90,30.06,7.0,South,6.9,-,N/A,,Unknown,190,2014-02-19 07:55:00
2:15 AM,66.2,63.0,89,30.06,10.0,SW,5.8,-,N/A,,Unknown,220,2014-02-19 08:15:00
2:35 AM,66.4,63.1,89,30.06,10.0,SW,4.6,-,N/A,,Unknown,220,2014-02-19 08:35:00
2:55 AM,66.6,63.0,88,30.06,10.0,SW,5.8,-,N/A,,Unknown,230,2014-02-19 08:55:00
3:15 AM,66.6,63.0,88,30.06,10.0,SW,3.5,-,N/A,,Unknown,220,2014-02-19 09:15:00
3:35 AM,66.7,63.3,89,30.06,10.0,SW,3.5,-,N/A,,Unknown,230,2014-02-19 09:35:00
3:55 AM,66.9,63.3,88,30.07,10.0,WSW,3.5,-,N/A,,Unknown,240,2014-02-19 09:55:00
4:15 AM,66.6,63.0,88,30.08,10.0,Calm,Calm,-,N/A,,Unknown,0,2014-02-19 10:15:00
4:35 AM,66.2,62.8,89,30.08,7.0,Calm,Calm,-,N/A,,Unknown,0,2014-02-19 10:35:00
4:55 AM,66.0,62.8,89,30.08,7.0,Calm,Calm,-,N/A,,Unknown,0,2014-02-19 10:55:00
5:15 AM,65.3,62.1,89,30.07,7.0,Calm,Calm,-,N/A,,Unknown,0,2014-02-19 11:15:00
5:35 AM,64.9,61.7,89,30.09,5.0,Calm,Calm,-,N/A,,Mist,0,2014-02-19 11:35:00
5:55 AM,64.6,61.7,90,30.10,5.0,Calm,Calm,-,N/A,,Mist,0,2014-02-19 11:55:00
6:15 AM,64.8,61.9,90,30.10,7.0,SSE,4.6,-,N/A,,Unknown,160,2014-02-19 12:15:00
6:35 AM,64.2,61.3,90,30.09,5.0,SSE,3.5,-,N/A,,Mist,160,2014-02-19 12:35:00
6:55 AM,63.9,61.0,90,30.08,1.8,Calm,Calm,-,N/A,,Mist,0,2014-02-19 12:55:00
7:15 AM,65.3,62.6,91,30.08,1.0,SSE,5.8,-,N/A,,Mist,160,2014-02-19 13:15:00
7:35 AM,65.8,63.1,91,30.09,1.5,Calm,Calm,-,N/A,,Mist,0,2014-02-19 13:35:00
7:55 AM,65.5,62.8,91,30.10,1.8,SSW,4.6,-,N/A,,Mist,210,2014-02-19 13:55:00
8:15 AM,66.2,63.5,91,30.10,2.0,South,3.5,-,N/A,,Mist,190,2014-02-19 14:15:00
8:35 AM,66.4,63.5,90,30.11,3.0,SSW,3.5,-,N/A,,Mist,200,2014-02-19 14:35:00
8:55 AM,67.1,63.9,89,30.11,10.0,South,3.5,-,N/A,,Unknown,190,2014-02-19 14:55:00
9:15 AM,68.2,63.5,85,30.11,10.0,South,4.6,-,N/A,,Unknown,190,2014-02-19 15:15:00
9:35 AM,70.2,63.5,79,30.11,10.0,SSW,8.1,-,N/A,,Unknown,200,2014-02-19 15:35:00
9:55 AM,70.7,63.0,76,30.10,10.0,North,-9999.0,-,N/A,,Unknown,0,2014-02-19 15:55:00
10:15 AM,73.0,62.6,70,30.10,10.0,SSW,5.8,-,N/A,,Unknown,200,2014-02-19 16:15:00
10:35 AM,72.5,62.4,71,30.10,10.0,WSW,3.5,-,N/A,,Unknown,240,2014-02-19 16:35:00
10:55 AM,74.8,62.4,65,30.09,10.0,SW,8.1,-,N/A,,Unknown,220,2014-02-19 16:55:00
11:15 AM,77.0,59.4,54,30.09,10.0,West,8.1,-,N/A,,Unknown,260,2014-02-19 17:15:00
11:35 AM,75.6,58.5,55,30.08,10.0,WSW,9.2,16.1,N/A,,Unknown,250,2014-02-19 17:35:00
11:55 AM,77.5,58.5,52,30.07,10.0,SW,8.1,-,N/A,,Unknown,230,2014-02-19 17:55:00
12:15 PM,76.6,58.3,53,30.06,10.0,WSW,9.2,-,N/A,,Unknown,240,2014-02-19 18:15:00
12:35 PM,77.2,57.6,51,30.04,10.0,WSW,8.1,-,N/A,,Unknown,240,2014-02-19 18:35:00
12:55 PM,77.4,57.7,51,30.03,10.0,SW,11.5,16.1,N/A,,Unknown,220,2014-02-19 18:55:00
1:15 PM,79.3,56.7,46,30.01,10.0,SW,10.4,18.4,N/A,,Unknown,220,2014-02-19 19:15:00
1:35 PM,80.2,55.9,43,30.01,10.0,SW,10.4,18.4,N/A,,Unknown,230,2014-02-19 19:35:00
1:55 PM,79.7,56.8,45,30.00,10.0,WSW,11.5,-,N/A,,Unknown,240,2014-02-19 19:55:00
2:15 PM,80.4,55.9,43,29.99,10.0,SW,12.7,18.4,N/A,,Unknown,220,2014-02-19 20:15:00
2:35 PM,81.7,56.3,42,29.99,10.0,SW,9.2,19.6,N/A,,Unknown,230,2014-02-19 20:35:00
2:55 PM,80.6,57.7,45,29.98,10.0,SW,10.4,19.6,N/A,,Unknown,230,2014-02-19 20:55:00
3:15 PM,80.1,57.6,46,29.98,10.0,SW,12.7,19.6,N/A,,Unknown,230,2014-02-19 21:15:00
3:35 PM,79.3,58.3,48,29.98,10.0,WSW,13.8,-,N/A,,Unknown,240,2014-02-19 21:35:00
3:55 PM,80.8,59.0,47,29.98,10.0,SW,10.4,-,N/A,,Unknown,220,2014-02-19 21:55:00
4:15 PM,77.9,59.0,52,29.98,10.0,SSW,10.4,17.3,N/A,,Unknown,210,2014-02-19 22:15:00
4:35 PM,77.9,59.5,53,29.98,10.0,SSW,12.7,-,N/A,,Unknown,200,2014-02-19 22:35:00
4:55 PM,76.8,61.3,59,29.98,10.0,SSW,13.8,19.6,N/A,,Unknown,200,2014-02-19 22:55:00
5:15 PM,75.6,62.4,64,29.98,10.0,South,13.8,-,N/A,,Unknown,180,2014-02-19 23:15:00
5:35 PM,74.3,63.0,68,29.99,10.0,South,8.1,16.1,N/A,,Unknown,180,2014-02-19 23:35:00
5:55 PM,73.2,62.8,70,29.99,10.0,South,11.5,-,N/A,,Unknown,170,2014-02-19 23:55:00
6:15 PM,71.8,63.1,74,29.99,10.0,SSE,9.2,-,N/A,,Unknown,160,2014-02-20 00:15:00
6:35 PM,70.9,63.3,77,30.00,10.0,SSE,9.2,-,N/A,,Unknown,160,2014-02-20 00:35:00
6:55 PM,70.7,63.3,77,30.00,10.0,SSE,10.4,-,N/A,,Unknown,160,2014-02-20 00:55:00
7:15 PM,69.8,63.3,80,30.00,10.0,SSE,8.1,-,N/A,,Unknown,160,2014-02-20 01:15:00
7:35 PM,68.7,63.3,83,30.00,10.0,SSE,6.9,-,N/A,,Unknown,160,2014-02-20 01:35:00
7:55 PM,68.9,63.9,84,30.00,10.0,SSE,8.1,-,N/A,,Unknown,160,2014-02-20 01:55:00
8:15 PM,69.1,64.4,85,30.00,10.0,South,8.1,-,N/A,,Unknown,170,2014-02-20 02:15:00
8:35 PM,69.1,64.4,85,30.00,10.0,SSE,9.2,-,N/A,,Unknown,160,2014-02-20 02:35:00
8:55 PM,68.9,64.4,86,30.00,10.0,SSE,8.1,-,N/A,,Unknown,160,2014-02-20 02:55:00
9:15 PM,68.9,64.4,86,30.00,10.0,South,10.4,-,N/A,,Unknown,170,2014-02-20 03:15:00
9:35 PM,68.9,64.4,86,30.00,10.0,SSE,9.2,16.1,N/A,,Unknown,160,2014-02-20 03:35:00
9:55 PM,68.9,64.4,86,30.00,10.0,SSE,8.1,-,N/A,,Unknown,160,2014-02-20 03:55:00
10:15 PM,68.5,64.4,87,29.99,10.0,SSE,8.1,-,N/A,,Unknown,160,2014-02-20 04:15:00
10:35 PM,68.4,64.4,87,29.99,7.0,South,10.4,16.1,N/A,,Unknown,170,2014-02-20 04:35:00
10:55 PM,68.2,64.4,88,29.99,10.0,SSE,10.4,17.3,N/A,,Unknown,160,2014-02-20 04:55:00
11:15 PM,68.0,63.9,87,29.99,10.0,South,10.4,18.4,N/A,,Unknown,170,2014-02-20 05:15:00
11:35 PM,68.0,63.7,86,29.98,10.0,South,6.9,-,N/A,,Unknown,170,2014-02-20 05:35:00
11:55 PM,67.8,63.5,86,29.98,10.0,South,6.9,-,N/A,,Unknown,170,2014-02-20 05:55:00